Notices

Due to recent upgrades, we are currently experiencing delays in populating our data report tables. We thank you for your patience during this time of difficulty as we are working in rectifying this issue as soon as possible. If you have any questions or concerns, please contact us.

Hourly Data Report for May 06, 2003

SHERBROOKE A
QUEBEC

45°26'00.000" N
71°41'00.000" W
241.40 m
7028124
71610
YSC

Download Data

Hourly Data (May 2003)
Hourly Data Report for May 6, 2003
TIME
LST
Temp Definition
°C
Dew Point Definition
°C
Rel Hum Definition
%
Precip. Amount Definition
mm

Wind Dir Definition
10's deg

Wind Spd Definition
km/h
Visibility Definition
km
Stn Press Definition
kPa
Hmdx Definition


Wind Chill Definition


Weather Definition


00:00 12.2 2.1 50   10 6 15.0 98.74      
01:00 11.6 2.5 54   10 6 15.0 98.71      
02:00 10.7 2.0 55   10 7 15.0 98.69      
03:00 11.1 0.9 49   13 9 15.0 98.70      
04:00 10.9 0.6 49   14 7 15.0 98.73      
05:00 10.8 0.0 47   14 11 15.0 98.74      
06:00 12.0 -1.1 40   13 15 15.0 98.73     Rain
07:00 11.3 0.4 47   5 7 24.1 98.63     Cloudy
08:00 11.5 -3.9 34   16 19 19.3 98.72     Rain Showers
09:00 8.0 3.9 75   24 4 24.1 98.65     Rain Showers
10:00 9.6 1.9 59   12 13 19.3 98.59     Rain
11:00 9.0 5.4 78   14 11 19.3 98.55     Rain
12:00 9.0 4.7 74   16 20 19.3 98.53     Rain
13:00 8.7 4.8 76   14 7 24.1 98.51     Rain
14:00 8.9 4.6 74   13 11 24.1 98.45     Drizzle
15:00 10.0 5.4 73   16 11 24.1 98.39     Cloudy
16:00 10.6 6.4 75   15 7 24.1 98.33     Cloudy
17:00 10.7 6.8 77   16 6 15.0 98.31      
18:00 10.6 7.1 79   14 7 15.0 98.25     Rain
19:00 10.0 7.7 86   18 6 12.9 98.28     Rain
20:00 9.2 8.2 93   14 6 8.0 98.27     Rain
21:00 9.0 8.3 95   11 4 4.8 98.27     Moderate Rain
22:00 8.8 8.2 96   10 7 9.7 98.18     Rain
23:00 8.8 8.3 97   7 4 11.3 98.16     Rain

Notes on Data Quality.

Legend

  • E = Estimated
  • M = Missing
  • NA = Not Available*
  • [empty] = Indicates an unobserved value
Date modified: